CZ-4B R/B, 60951

Orbit data source: Space-Track

CZ-4B R/B, 60951 is space debris in LEO originally from a launch on Tue, 03 Sep 2024 UTC launched from the Xichang Space Center, China (XSC). Debris objects in space refer to the collection of defunct objects orbiting the Earth. Examples of debris include non-operational satellites, rocket bodies, and fragments generated from explosions, collisions, or faulty payload assembly.

Loading next visibility...
CZ-4B R/B details
Identifier
60951, 2024-156G
Orbit
LEO
Last TLE update14 hours ago
Origin
Flag of CNCNSA (CN / PRC)
ManufacturerSAST
MissionSpacecraft
Bus & MotorCZ-4 STAGE 3, Unknown motor
Mass~1,000 kg wet, ~1,000 kg dry
Launch date (UTC)
2024-09-03 (4 months ago)
Launch vehicleUnknown
Launch site
Xichang Space Center, China (XSC)
Object type
Payload
Rocket body
Debris
Shape & HBRUnknown
Radar Cross SectionLarge (>1 m²)

Expand to show TLE details & history

TLE from 14 hours ago
0 CZ-4B R/B
1 60951U 24156G   25014.60941920  .00150352  00000-0  92911-3 0  9993
2 60951  34.9926 174.5613 0046371 184.0196 176.0167 15.74121174 20837
Epoch: 2025-01-14T14:37Z
Definitive object data (Epoch: 2025-01-14T14:37:33.818Z)
Latitude-0°
Longitude-159.14327°
Altitude377.119 km
Speed7.668 km/s
True Right ascension11h 38m 14s
True Declination0° 00' 00"
Sunlit
Object was in full shadow at TLE epoch
Visualization TLE readout
Latitude35.11334°
Longitude-70.38034°
Altitude351.127 km
Speed7.702 km/s
Apparent Right ascension17h 27m 59s
Apparent Declination-1° 12' 54"
Sunlit
Object is in daylight
Visualization observer readout
Local Sidereal Time05:22:02
Azimuth357.619° N
Elevation-51.275°
Doppler factor1
Orbital elements
Apogee altitude381.658 km
Perigee altitude319.256 km
Semi-major axis6,728.594 km
Eccentricity0.0046371
Inclination34.9926°
RAAN174.5613°
Arg. of periapsis184.0196°
True anomaly176.0534°
Mean anomaly176.0167°
Eccentric anomaly176.03507°
Mean motion3.93239 °/min
BSTAR0.00092911
Orbital period91.55 mins
Loading maneuver chart data...
Loading historical data...
Loading historical data...
Loading historical data...
Loading historical data...
Loading historical data...
Loading historical data...
Loading historical data...

CZ-4B R/B Visibility forecast

Observer location: undefined°, undefined

Span
Click to sort rows by Start time (UTC) header in descending order
Start Az.
Max El. time (UTC)
Max El. Az.
Max El.
End time (UTC)
End Az.
4 mins2025-01-15 15:15:56.604Z221.688° SW2025-01-15 15:17:56.604Z173.409° S22.229°2025-01-15 15:19:56.604Z120.151° SE
|